Topeka, KS

4:28 AM CST on February 21, 2017 (GMT -0600)
Forbes

Weather History for KFOE - May, 2013

Change the Weather History Date:

Tuesday, May 14, 2013

  Actual Average Record
Temperature  
Mean Temperature 77 °F -  
Max Temperature 93 °F 75 °F 93 °F (2013)
Min Temperature 63 °F 51 °F 34 °F (1980)
Cooling Degree Days 12    
Growing Degree Days 27 (Base 50)    
Moisture  
Dew Point 51 °F    
Average Humidity 44    
Maximum Humidity 73    
Minimum Humidity 21    
Precipitation  
Precipitation 0.00 in - - ()
Sea Level Pressure  
Sea Level Pressure 29.82 in    
Wind  
Wind Speed 13 mph (SSW)    
Max Wind Speed 24 mph    
Max Gust Speed 34 mph    
Visibility 10 miles    
Events      
Averages and records for this station are not official NWS values.
T = Trace of Precipitation, MM = Missing Value Source: NWS Daily Summary

Daily Weather History Graph

Daily Weather History Graph

Search for Another Location

Airport or City:

Trip Planner

Search our weather history database for the weather conditions in past years. The results will help you decide how hot, cold, wet, or windy it might be!

Date:

Astronomy

May. 14, 2013 Rise Set
Actual Time 6:10 AM CDT 8:27 PM CDT
Civil Twilight 5:40 AM CDT 8:57 PM CDT
Nautical Twilight 5:03 AM CDT 9:34 PM CDT
Astronomical Twilight 4:23 AM CDT 10:15 PM CDT
Moon 9:51 AM CDT (5/14) No Moon Set
Length of Visible Light 15h 17m
Length of Day
14h 17m
Waxing Crescent, 19% of the Moon is Illuminated
May 14
Waxing Crescent
May 17
First Quarter
May 24
Full
May 31
Last Quarter
Jun 8
New

Hourly Weather History & Observations

Time (CDT) Temp. Dew Point Humidity Pressure Visibility Wind Dir Wind Speed Gust Speed Precip Events Conditions
12:53 AM 66.9 °F 57.0 °F 70% 29.90 in 10.0 mi South 10.4 mph - N/A   Clear
1:53 AM 64.9 °F 55.9 °F 73% 29.87 in 10.0 mi South 9.2 mph - N/A   Clear
2:53 AM 64.9 °F 55.9 °F 73% 29.85 in 10.0 mi SSW 11.5 mph - N/A   Clear
3:53 AM 64.0 °F 55.0 °F 73% 29.84 in 10.0 mi SSW 11.5 mph - N/A   Clear
4:53 AM 63.0 °F 54.0 °F 72% 29.83 in 10.0 mi SSW 11.5 mph - N/A   Clear
5:53 AM 63.0 °F 52.0 °F 67% 29.83 in 10.0 mi SSW 11.5 mph - N/A   Clear
6:53 AM 63.0 °F 51.1 °F 65% 29.85 in 10.0 mi SSW 4.6 mph - N/A   Clear
7:53 AM 69.1 °F 50.0 °F 51% 29.86 in 10.0 mi SSW 8.1 mph - N/A   Clear
8:53 AM 73.9 °F 50.0 °F 43% 29.86 in - SW 8.1 mph - N/A   Clear
9:53 AM 79.0 °F 48.0 °F 34% 29.85 in 10.0 mi SW 17.3 mph 21.9 mph N/A   Clear
10:53 AM 82.0 °F 48.9 °F 31% 29.84 in 10.0 mi SSW 13.8 mph - N/A   Clear
11:53 AM 86.0 °F 50.0 °F 29% 29.84 in 10.0 mi SSW 15.0 mph 21.9 mph N/A   Clear
12:53 PM 88.0 °F 48.9 °F 26% 29.83 in 10.0 mi SW 17.3 mph - N/A   Clear
1:53 PM 91.0 °F 48.9 °F 23% 29.81 in 10.0 mi SW 17.3 mph 28.8 mph N/A   Clear
2:53 PM 91.9 °F 48.9 °F 23% 29.79 in 10.0 mi SSW 20.7 mph 29.9 mph N/A   Clear
3:53 PM 91.9 °F 46.9 °F 21% 29.78 in 10.0 mi SSW 24.2 mph 34.5 mph N/A   Clear
4:53 PM 91.0 °F 46.9 °F 22% 29.78 in 10.0 mi SSW 18.4 mph 34.5 mph N/A   Clear
5:53 PM 89.1 °F 48.0 °F 24% 29.78 in 10.0 mi SSW 18.4 mph 28.8 mph N/A   Clear
6:53 PM 87.1 °F 46.9 °F 25% 29.77 in 10.0 mi SSW 15.0 mph 28.8 mph N/A   Clear
7:53 PM 82.9 °F 46.0 °F 27% 29.78 in 10.0 mi SSW 13.8 mph - N/A   Clear
8:53 PM 78.1 °F 48.0 °F 35% 29.78 in 10.0 mi SSW 12.7 mph - N/A   Clear
9:53 PM 75.0 °F 51.1 °F 43% 29.80 in 10.0 mi South 13.8 mph - N/A   Clear
10:53 PM 73.9 °F 52.0 °F 46% 29.80 in 10.0 mi SSW 13.8 mph - N/A   Clear
11:53 PM 73.0 °F 53.1 °F 49% 29.79 in 10.0 mi SSW 13.8 mph - N/A   Clear